• In Russia
  • List of Countries
  • For 7 days
  • Water Temperature
  • Satellite Maps
  • Weather Map
  • Weather Widgets
  • user-avatar
    Login

    Hourly Weather Canberra

    Today, 22 May, Tuesday

    Time Temperature Precipitation Wind Pressure Humidity
    00:00 +7°C° 0 mm 3 mps 711 mmHg 85%
    01:00 +7°C° 0 mm 3 mps 711 mmHg 85%
    02:00 +7°C° 0 mm 3 mps 711 mmHg 86%
    03:00 +7°C° 0 mm 3 mps 711 mmHg 87%
    04:00 +7°C° 0 mm 3 mps 711 mmHg 88%
    05:00 +8°C° 0 mm 3 mps 711 mmHg 88%
    06:00 +8°C° 0 mm 3 mps 711 mmHg 88%
    07:00 +8°C° 0 mm 3 mps 711 mmHg 87%
    08:00 +10°C° 0 mm 4 mps 712 mmHg 78%
    09:00 +13°C° 0 mm 4 mps 712 mmHg 69%
    10:00 +15°C° 0 mm 5 mps 712 mmHg 60%
    11:00 +16°C° 0 mm 5 mps 712 mmHg 57%
    12:00 +16°C° 0 mm 5 mps 712 mmHg 55%
    13:00 +17°C° 0 mm 5 mps 712 mmHg 52%
    14:00 +17°C° 0 mm 5 mps 712 mmHg 55%
    15:00 +16°C° 0 mm 5 mps 712 mmHg 57%
    16:00 +15°C° 0 mm 4 mps 712 mmHg 59%
    17:00 +14°C° 0 mm 4 mps 713 mmHg 67%
    18:00 +12°C° 0 mm 3 mps 713 mmHg 76%
    19:00 +12°C° 0 mm 2 mps 713 mmHg 84%
    20:00 +10°C° 0 mm 2 mps 713 mmHg 86%
    21:00 +10°C° 0 mm 2 mps 713 mmHg 88%
    22:00 +10°C° 0 mm 2 mps 714 mmHg 90%
    23:00 +10°C° 0 mm 1 mps 714 mmHg 92%

    Tomorrow, 23 May, Wednesday

    Time Temperature Precipitation Wind Pressure Humidity
    00:00 +10°C° 0 mm 1 mps 714 mmHg 94%
    01:00 +9°C° 0 mm 1 mps 714 mmHg 96%
    02:00 +9°C° 0 mm 1 mps 714 mmHg 96%
    03:00 +8°C° 0 mm 1 mps 714 mmHg 96%
    04:00 +8°C° 0 mm 1 mps 714 mmHg 96%
    05:00 +8°C° 0 mm 1 mps 714 mmHg 96%
    06:00 +7°C° 0 mm 1 mps 715 mmHg 96%
    07:00 +7°C° 0 mm 1 mps 715 mmHg 96%
    08:00 +9°C° 0 mm 1 mps 715 mmHg 86%
    09:00 +12°C° 0 mm 1 mps 716 mmHg 77%
    10:00 +14°C° 0 mm 1 mps 716 mmHg 67%
    11:00 +16°C° 0 mm 1 mps 716 mmHg 61%
    12:00 +17°C° 0 mm 2 mps 715 mmHg 55%
    13:00 +19°C° 0 mm 2 mps 715 mmHg 49%
    14:00 +18°C° 0 mm 2 mps 715 mmHg 51%
    15:00 +18°C° 0 mm 3 mps 715 mmHg 53%
    16:00 +17°C° 0 mm 3 mps 714 mmHg 55%
    17:00 +15°C° 0 mm 2 mps 714 mmHg 66%
    18:00 +13°C° 0 mm 2 mps 714 mmHg 76%
    19:00 +9°C° 0 mm 2 mps 714 mmHg 87%
    20:00 +9°C° 0 mm 2 mps 714 mmHg 88%
    21:00 +9°C° 0 mm 1 mps 714 mmHg 90%
    22:00 +9°C° 0 mm 1 mps 715 mmHg 91%
    23:00 +9°C° 0 mm 1 mps 714 mmHg 91%

    Day after tomorrow, 24 May, Thursday

    Time Temperature Precipitation Wind Pressure Humidity
    00:00 +8°C° 0 mm 1 mps 714 mmHg 91%
    01:00 +8°C° 0 mm 1 mps 714 mmHg 91%
    02:00 +8°C° 0 mm 1 mps 714 mmHg 91%
    03:00 +8°C° 0 mm 1 mps 714 mmHg 92%
    04:00 +7°C° 0 mm 1 mps 714 mmHg 92%
    05:00 +7°C° 0 mm 1 mps 714 mmHg 93%
    06:00 +7°C° 0 mm 1 mps 714 mmHg 94%
    07:00 +6°C° 0 mm 0 mps 715 mmHg 94%
    08:00 +8°C° 0 mm 0 mps 715 mmHg 85%
    09:00 +11°C° 0 mm 0 mps 716 mmHg 76%
    10:00 +13°C° 0 mm 0 mps 716 mmHg 67%
    11:00 +15°C° 0 mm 1 mps 716 mmHg 63%
    12:00 +16°C° 0 mm 1 mps 715 mmHg 59%
    13:00 +18°C° 0 mm 1 mps 715 mmHg 55%
    14:00 +18°C° 0 mm 1 mps 715 mmHg 58%
    15:00 +16°C° 0 mm 1 mps 715 mmHg 60%
    16:00 +16°C° 0 mm 1 mps 714 mmHg 63%
    17:00 +14°C° 0 mm 1 mps 715 mmHg 72%
    18:00 +12°C° 0 mm 1 mps 715 mmHg 82%
    19:00 +10°C° 0 mm 1 mps 715 mmHg 92%
    20:00 +10°C° 0 mm 1 mps 716 mmHg 93%
    21:00 +10°C° 0 mm 1 mps 716 mmHg 94%
    22:00 +10°C° 0 mm 1 mps 717 mmHg 96%
    23:00 +10°C° 0 mm 1 mps 716 mmHg 95%

    25 May, Friday

    Time Temperature Precipitation Wind Pressure Humidity
    00:00 +10°C° 0 mm 1 mps 716 mmHg 95%
    01:00 +10°C° 0 mm 1 mps 716 mmHg 95%
    02:00 +10°C° 0 mm 1 mps 716 mmHg 95%
    03:00 +10°C° 0 mm 1 mps 716 mmHg 96%
    04:00 +10°C° 0 mm 1 mps 716 mmHg 96%
    05:00 +9°C° 0 mm 1 mps 716 mmHg 96%
    06:00 +9°C° 0 mm 1 mps 717 mmHg 97%
    07:00 +9°C° 0 mm 1 mps 717 mmHg 97%
    08:00 +10°C° 0 mm 1 mps 717 mmHg 91%
    09:00 +11°C° 0 mm 1 mps 717 mmHg 84%
    10:00 +13°C° 0 mm 1 mps 717 mmHg 78%
    11:00 +14°C° 0 mm 1 mps 717 mmHg 72%
    12:00 +15°C° 0 mm 1 mps 717 mmHg 65%
    13:00 +16°C° 0 mm 1 mps 716 mmHg 58%
    14:00 +16°C° 0 mm 1 mps 716 mmHg 59%
    15:00 +16°C° 0 mm 1 mps 716 mmHg 59%
    16:00 +16°C° 0 mm 1 mps 715 mmHg 60%
    17:00 +14°C° 0 mm 1 mps 716 mmHg 70%
    18:00 +11°C° 0 mm 1 mps 716 mmHg 80%
    19:00 +9°C° 0 mm 1 mps 716 mmHg 90%
    20:00 +9°C° 0 mm 1 mps 716 mmHg 91%
    21:00 +8°C° 0 mm 1 mps 716 mmHg 93%
    22:00 +8°C° 0 mm 1 mps 717 mmHg 95%
    23:00 +8°C° 0 mm 1 mps 716 mmHg 95%

    26 May, Saturday

    Time Temperature Precipitation Wind Pressure Humidity
    00:00 +7°C° 0 mm 1 mps 716 mmHg 96%
    01:00 +7°C° 0 mm 1 mps 716 mmHg 96%
    02:00 +7°C° 0 mm 1 mps 716 mmHg 96%
    03:00 +7°C° 0 mm 1 mps 716 mmHg 96%
    04:00 +7°C° 0 mm 1 mps 716 mmHg 96%
    05:00 +7°C° 0 mm 1 mps 716 mmHg 95%
    06:00 +7°C° 0 mm 1 mps 716 mmHg 95%
    07:00 +7°C° 0 mm 1 mps 717 mmHg 95%
    08:00 +9°C° 0 mm 1 mps 717 mmHg 84%
    09:00 +12°C° 0 mm 1 mps 717 mmHg 74%
    10:00 +15°C° 0 mm 1 mps 717 mmHg 64%
    11:00 +16°C° 0 mm 1 mps 717 mmHg 57%
    12:00 +18°C° 0 mm 2 mps 716 mmHg 51%
    13:00 +19°C° 0 mm 2 mps 716 mmHg 44%
    14:00 +18°C° 0 mm 2 mps 716 mmHg 46%
    15:00 +18°C° 0 mm 2 mps 715 mmHg 48%
    16:00 +18°C° 0 mm 1 mps 715 mmHg 51%
    17:00 +15°C° 0 mm 1 mps 715 mmHg 60%
    18:00 +13°C° 0 mm 1 mps 715 mmHg 69%
    19:00 +10°C° 0 mm 1 mps 715 mmHg 79%
    20:00 +10°C° 0 mm 1 mps 715 mmHg 80%
    21:00 +9°C° 0 mm 1 mps 715 mmHg 82%
    22:00 +9°C° 0 mm 1 mps 715 mmHg 83%
    23:00 +9°C° 0 mm 1 mps 715 mmHg 83%

    27 May, Sunday

    Time Temperature Precipitation Wind Pressure Humidity
    00:00 +8°C° 0 mm 1 mps 715 mmHg 83%
    01:00 +8°C° 0 mm 1 mps 715 mmHg 82%
    02:00 +8°C° 0 mm 1 mps 715 mmHg 83%
    03:00 +8°C° 0 mm 1 mps 715 mmHg 84%
    04:00 +8°C° 0 mm 1 mps 714 mmHg 85%
    05:00 +8°C° 0 mm 1 mps 715 mmHg 86%
    06:00 +8°C° 0 mm 1 mps 715 mmHg 86%
    07:00 +8°C° 0 mm 1 mps 715 mmHg 87%
    08:00 +10°C° 0 mm 1 mps 715 mmHg 77%
    09:00 +13°C° 0 mm 1 mps 715 mmHg 67%
    10:00 +15°C° 0 mm 1 mps 715 mmHg 58%
    11:00 +17°C° 0 mm 2 mps 715 mmHg 54%
    12:00 +18°C° 0 mm 2 mps 714 mmHg 50%
    13:00 +19°C° 0 mm 3 mps 714 mmHg 46%
    14:00 +19°C° 0.1 mm 2 mps 714 mmHg 51%
    15:00 +18°C° 0.1 mm 2 mps 714 mmHg 57%
    16:00 +17°C° 0.1 mm 2 mps 713 mmHg 62%
    17:00 +15°C° 0.1 mm 2 mps 713 mmHg 70%
    18:00 +13°C° 0.1 mm 1 mps 714 mmHg 79%
    19:00 +12°C° 0.1 mm 1 mps 714 mmHg 87%
    20:00 +11°C° 0 mm 1 mps 714 mmHg 88%
    21:00 +11°C° 0 mm 1 mps 714 mmHg 89%
    22:00 +10°C° 0 mm 1 mps 714 mmHg 89%
    23:00 +10°C° 0 mm 1 mps 713 mmHg 90%
    Show more